Regional Weather Roundup
Issued by NWS

Home | Current Version | Previous Version | Graphics & Text | Print | Product List | Glossary On
Versions: 1 2 3 4 5 6 7 8 9 10 11 12 13 14 15 16 17 18 19 20 21 22 23 24 25 26 27 28 29 30 31 32 33 34 35 36 37 38 39 40 41 42 43 44 45 46 47 48 49 50
000
ASUS43 KDMX 240101
RWRIA

WEATHER ROUNDUP FOR IOWA
NATIONAL WEATHER SERVICE DES MOINES IA
800 PM CDT MON APR 23 2018

NOTE: "FAIR" INDICATES FEW OR NO CLOUDS BELOW 12,000 FEET WITH NO
SIGNIFICANT WEATHER AND/OR OBSTRUCTIONS TO VISIBILITY.

* - THESE STATIONS ARE NOT NWS STATIONS...THUS NOT UNDER NWS
QUALITY CONTROL.  THEY ALSO DO NOT REPORT WEATHER SUCH
AS PRECIPITATION OR FOG.

IAZ001>003-012>014-020>022-031>034-043>046-240200-
   NORTHWEST IOWA

CITY           SKY/WX    TMP DP  RH WIND       PRES   REMARKS
CARROLL *      CLEAR     66  36  32 NE8       30.08R
CHEROKEE *     CLEAR     61  41  48 NE7       30.11S
DENISON *      CLEAR     64  34  32 E6        30.09S
LE MARS *      CLEAR     64  36  34 E13       30.09S
ORANGE CITY *  CLEAR     63  39  42 E7        30.11S
SHELDON *      CLEAR     59  41  51 E9        30.11R
SIOUX CITY     CLEAR     65  38  36 E12       30.07S
SPENCER        CLEAR     57  42  57 E7        30.13S
STORM LAKE *   CLEAR     59  41  51 NE10      30.11S
$$

IAZ055>058-069>071-079>083-090>094-240200-
   SOUTHWEST IOWA

CITY           SKY/WX    TMP DP  RH WIND       PRES   REMARKS
ATLANTIC *     CLEAR     68  28  22 E6        30.06S
AUDUBON *      CLEAR     63  30  29 NE5       30.09S
CLARINDA *     CLEAR     66  30  26 E6        30.07S
COUNCIL BLFS * CLEAR     68  30  24 E6        30.06R
CRESTON *      CLEAR     64  28  25 NE7       30.07S
HARLAN  *      CLEAR     66  30  26 NE7       30.10S
LAMONI         CLEAR     63  32  31 NE8       30.04S
RED OAK *      CLEAR     64  34  32 E7        30.06R
SHENANDOAH *   CLEAR     66  30  26 NE7       30.06R
$$

IAZ047>049-059>061-072>074-084-240200-
   CENTRAL IOWA

CITY           SKY/WX    TMP DP  RH WIND       PRES   REMARKS
AMES           CLEAR     65  31  28 NE8       30.07S
ANKENY *       CLEAR     64  28  25 NE7       30.07S
BOONE *        CLEAR     63  36  36 MISG      30.07S
CHARITON *     CLEAR     63  30  29 NE7       30.05R
DES MOINES     PTCLDY    68  28  22 NE8       30.06S
GRINNELL*      CLEAR     61  29  30 NE8       30.08R
KNOXVILLE *    CLEAR     66  27  22 E6        30.04S
MARSHALLTOWN   CLEAR     61  32  33 NE7       30.06S
NEWTON *       CLEAR     64  30  27 E8        30.06S
PELLA *        CLEAR     66  25  20 E5        30.06S
$$

IAZ004>006-015-016-023>025-035-036-240200-
   NORTH CENTRAL IOWA

CITY           SKY/WX    TMP DP  RH WIND       PRES   REMARKS
ALGONA *       CLEAR     57  48  72 N6        30.13S
CLARION *      CLEAR     59  45  58 N8        30.11R
ESTHERVILLE    CLEAR     55  48  77 CALM      30.13F
FORT DODGE *   CLEAR     61  44  53 NE8       30.11S
MASON CITY     CLEAR     57  46  66 NE6       30.12F
FOREST CITY *  FAIR      61  41  48 N3        30.12S
WEBSTER CITY * CLEAR     63  41  45 NE8       30.08R
IOWA FALLS *   FAIR      64  37  36 N8        30.10S
$$

IAZ007>011-017>019-026>030-037>042-050>054-066-240200-
   NORTHEAST IOWA

CITY           SKY/WX    TMP DP  RH WIND       PRES   REMARKS
CEDAR RAPIDS   FAIR      62  29  28 E8        30.06R
CHARLES CITY * FAIR      61  37  41 NE6       30.11S
CLINTON *        N/A     58  34  40 NE10      30.07R
DECORAH *      FAIR      63  28  27 NE6       30.09S
DUBUQUE        FAIR      60  25  26 NE7       30.09S
MONTICELLO *   FAIR      63  28  27 NE3       30.07S
OELWEIN *      FAIR      59  32  36 NE8       30.10R
WATERLOO       FAIR      59  31  34 NE8       30.08S
$$

IAZ064-065-067-068-078-240200-
   EAST CENTRAL IOWA

CITY           SKY/WX    TMP DP  RH WIND       PRES   REMARKS
DAVENPORT      FAIR      61  30  31 N10       30.07S
IOWA CITY      FAIR      62  27  26 NE7       30.07S
MT. PLEASANT * CLOUDY    61  32  33 N8        30.03S
MUSCATINE *    FAIR      61  32  33 N7        30.05R
QUAD CITIES    FAIR      68  32  26 E12       30.03S
$$

IAZ062-063-075>077-085>089-095>099-240200-
   SOUTHEAST IOWA

CITY           SKY/WX    TMP DP  RH WIND       PRES   REMARKS
BURLINGTON     CLOUDY    67  30  25 NE8       30.02R
FAIRFIELD *    PTCLDY    63  27  25 NE9       30.04S
FORT MADISON * MOCLDY    66  34  30 E6        30.03S
KEOKUK *       MOCLDY    66  32  28 NE7       30.01S
OSKALOOSA *    FAIR      63  25  23 E6        30.05S
CENTERVILLE *    N/A     63  25  23 NE6       30.06R
OTTUMWA        PTCLDY    63  26  24 NE7       30.04F
WASHINGTON *   PTCLDY    63  28  27 NE9       30.06S
$$

ABBREVIATIONS USED IN REMARKS
   TC - TEMPERATURES IN CELSIUS
  WCI - WIND CHILL INDEX
   HX - HEAT INDEX
  VSB - VISIBILITY
$$





USA.gov is the U.S. government's official web portal to all federal, state and local government web resources and services.